Weather History for KHYR - April, 2014

Change the Weather History Date:

Saturday, April 26, 2014

  Actual Average Record
Temperature  
Mean Temperature 37 °F -  
Max Temperature 52 °F 70 °F 75 °F (1999)
Min Temperature 23 °F 44 °F 18 °F (2002)
Degree Days  
Heating Degree Days 28    
Moisture  
Dew Point 27 °F    
Average Humidity 75    
Maximum Humidity 96    
Minimum Humidity 39    
Precipitation  
Precipitation 0.00 in - - ()
Sea Level Pressure  
Sea Level Pressure 30.06 in    
Wind  
Wind Speed 4 mph (NE)    
Max Wind Speed 14 mph    
Max Gust Speed 25 mph    
Visibility 9 miles    
Events Snow    
Averages and records for this station are not official NWS values.
T = Trace of Precipitation, MM = Missing Value Source: NWS Daily Summary

Daily Weather History Graph

Daily Weather History Graph

Search for Another Location

Airport or City:

Trip Planner

Search our weather history database for the weather conditions in past years. The results will help you decide how hot, cold, wet, or windy it might be!

Date:

Astronomy

Apr. 26, 2014 Rise Set
Actual Time 6:00 AM CDT 8:07 PM CDT
Civil Twilight 5:28 AM CDT 8:40 PM CDT
Nautical Twilight 4:48 AM CDT 9:20 PM CDT
Astronomical Twilight 4:03 AM CDT 10:05 PM CDT
Moon 4:34 AM CDT (4/26) 5:28 PM CDT (4/26)
Length of Visible Light 15h 11m
Length of Day
14h 06m
Waning Crescent, 8% of the Moon is Illuminated
Apr 26
Waning Crescent
Apr 29
New
May 6
First Quarter
May 14
Full
May 21
Last Quarter

Hourly Weather History & Observations

Time (CDT) Temp. Windchill Dew Point Humidity Pressure Visibility Wind Dir Wind Speed Gust Speed Precip Events Conditions
12:53 AM 28.9 °F 25.2 °F 28.0 °F 96% 29.99 in 10.0 mi NNE 3.5 mph - N/A   Clear
1:53 AM 28.9 °F - 27.0 °F 92% 30.00 in 10.0 mi Calm Calm - N/A   Clear
2:53 AM 28.0 °F - 26.1 °F 92% 30.01 in 10.0 mi Calm Calm - N/A   Clear
3:53 AM 25.0 °F - 23.0 °F 92% 30.02 in 10.0 mi Calm Calm - N/A   Scattered Clouds
4:03 AM 24.1 °F - 21.9 °F 91% 29.98 in 10.0 mi Calm Calm - N/A   Mostly Cloudy
4:14 AM 25.0 °F - 23.0 °F 92% 29.98 in 10.0 mi Calm Calm - N/A   Scattered Clouds
4:53 AM 23.0 °F - 19.9 °F 88% 30.04 in 10.0 mi Calm Calm - N/A   Scattered Clouds
5:11 AM 24.1 °F - 21.9 °F 91% 29.99 in 10.0 mi Calm Calm - N/A   Mostly Cloudy
5:53 AM 25.0 °F - 23.0 °F 92% 30.06 in 9.0 mi Calm Calm - N/A   Overcast
6:16 AM 28.0 °F - 26.1 °F 92% 30.02 in 2.0 mi Calm Calm - 0.00 in Snow Light Snow
6:21 AM 28.0 °F - 26.1 °F 92% 30.02 in 3.0 mi Calm Calm - 0.00 in Snow Light Snow
6:37 AM 30.0 °F 25.2 °F 28.0 °F 92% 30.01 in 2.5 mi NNE 4.6 mph - 0.00 in Snow Light Snow
6:44 AM 30.0 °F 26.5 °F 28.0 °F 92% 30.02 in 1.8 mi Variable 3.5 mph - 0.00 in Snow Light Snow
6:53 AM 30.9 °F - 28.9 °F 92% 30.06 in 1.2 mi Calm Calm - 0.00 in Snow Light Snow
7:03 AM 32.0 °F 27.5 °F 30.0 °F 92% 30.04 in 2.5 mi NE 4.6 mph - 0.00 in Snow Light Snow
7:08 AM 32.0 °F 27.5 °F 30.0 °F 92% 30.04 in 7.0 mi ENE 4.6 mph - 0.00 in   Overcast
7:18 AM 32.0 °F 24.2 °F 28.9 °F 88% 30.05 in 10.0 mi NE 9.2 mph - 0.00 in   Overcast
7:53 AM 34.0 °F 26.6 °F 28.9 °F 82% 30.10 in 10.0 mi ENE 9.2 mph 18.4 mph 0.00 in   Overcast
8:53 AM 37.0 °F 29.3 °F 28.9 °F 73% 30.11 in 10.0 mi NE 11.5 mph - N/A   Mostly Cloudy
9:31 AM 37.9 °F 30.5 °F 28.0 °F 68% 30.07 in 10.0 mi East 11.5 mph - N/A   Scattered Clouds
9:53 AM 37.9 °F 30.9 °F 28.0 °F 68% 30.13 in 10.0 mi NE 10.4 mph - N/A   Mostly Cloudy
10:53 AM 39.9 °F 32.1 °F 28.0 °F 63% 30.12 in 10.0 mi NE 13.8 mph - N/A   Mostly Cloudy
11:49 AM 44.6 °F 39.2 °F 28.4 °F 53% 30.07 in 10.0 mi NE 10.4 mph - N/A   Mostly Cloudy
11:53 AM 44.1 °F 38.6 °F 28.0 °F 53% 30.12 in 10.0 mi East 10.4 mph - N/A   Mostly Cloudy
12:53 PM 46.9 °F - 28.0 °F 48% 30.11 in 10.0 mi NE 9.2 mph - N/A   Clear
1:53 PM 48.0 °F - 27.0 °F 44% 30.08 in 10.0 mi NE 11.5 mph 21.9 mph N/A   Clear
2:53 PM 50.0 °F - 27.0 °F 41% 30.07 in 10.0 mi East 10.4 mph 25.3 mph N/A   Clear
3:53 PM 50.0 °F - 27.0 °F 41% 30.07 in 10.0 mi East 11.5 mph 21.9 mph N/A   Clear
4:53 PM 51.1 °F - 27.0 °F 39% 30.06 in 10.0 mi ENE 12.7 mph 18.4 mph N/A   Clear
5:53 PM 48.9 °F - 28.9 °F 46% 30.06 in 10.0 mi ENE 12.7 mph - N/A   Clear
6:53 PM 45.0 °F 38.9 °F 30.0 °F 56% 30.05 in 10.0 mi NE 12.7 mph - N/A   Clear
7:53 PM 39.9 °F 33.9 °F 28.9 °F 65% 30.06 in 10.0 mi NE 9.2 mph - N/A   Clear
8:53 PM 37.0 °F 29.8 °F 28.9 °F 73% 30.09 in 10.0 mi NE 10.4 mph - N/A   Clear
9:53 PM 36.0 °F 31.1 °F 28.0 °F 73% 30.13 in 10.0 mi NNE 5.8 mph - N/A   Clear
10:53 PM 36.0 °F 29.0 °F 28.0 °F 73% 30.13 in 10.0 mi ENE 9.2 mph - N/A   Clear
11:53 PM 37.9 °F 30.9 °F 27.0 °F 65% 30.12 in 10.0 mi ENE 10.4 mph - N/A   Clear